EAG8BT EGAC-EGNX

Flight info

Callsign EAG8BT
Flight time N/A
Altitude 15000
Route DUFFY L15 PEPOD Q38 MALUD
Aircraft AT76/M-SDFGIRY/S

Departure

Time 2026-04-28 19:50
Airport George Best Belfast City Airport (EGAC)

Arrival

Time N/A
Airport East Midlands Airport (EGNX)
Time Latitude Longitude Altitude Speed Heading
2026-04-28 19:27 54.61662 -5.86983 21 ft 0 kts 124°
2026-04-28 19:43 54.61662 -5.86984 44 ft 1 kts 124°
2026-04-28 19:43 54.61677 -5.87013 23 ft 4 kts 155°
2026-04-28 19:43 54.61701 -5.87018 27 ft 4 kts 204°
2026-04-28 19:43 54.61708 -5.87012 20 ft 0 kts 214°
2026-04-28 19:45 54.61708 -5.87013 20 ft 2 kts 214°
2026-04-28 19:45 54.61671 -5.87055 22 ft 10 kts 214°
2026-04-28 19:45 54.61602 -5.87135 21 ft 8 kts 214°
2026-04-28 19:46 54.61590 -5.87149 20 ft 2 kts 214°
2026-04-28 19:46 54.61548 -5.87201 20 ft 9 kts 216°
2026-04-28 19:46 54.61502 -5.87259 20 ft 12 kts 216°
2026-04-28 19:46 54.61421 -5.87361 20 ft 16 kts 218°
2026-04-28 19:47 54.61335 -5.87503 20 ft 18 kts 214°
2026-04-28 19:47 54.61228 -5.87629 21 ft 19 kts 214°
2026-04-28 19:47 54.61120 -5.87757 19 ft 19 kts 214°
2026-04-28 19:47 54.61089 -5.87941 21 ft 16 kts 312°
2026-04-28 19:48 54.61166 -5.88006 19 ft 9 kts 40°
2026-04-28 19:48 54.61179 -5.87973 19 ft 1 kts 36°
2026-04-28 19:48 54.61187 -5.87964 19 ft 2 kts 36°
2026-04-28 19:48 54.61194 -5.87957 19 ft 0 kts 27°
2026-04-28 19:49 54.61196 -5.87956 19 ft 2 kts 17°
2026-04-28 19:49 54.61257 -5.87904 18 ft 20 kts 35°
2026-04-28 19:49 54.61299 -5.87854 17 ft 23 kts 33°
2026-04-28 19:49 54.61611 -5.87483 19 ft 83 kts 35°
2026-04-28 19:50 54.62841 -5.85933 662 ft 117 kts 40°
2026-04-28 19:50 54.63313 -5.84820 1221 ft 117 kts 78°
2026-04-28 19:50 54.62971 -5.83608 1591 ft 130 kts 148°
2026-04-28 19:51 54.61979 -5.83224 1641 ft 159 kts 167°
2026-04-28 19:51 54.60837 -5.82857 1945 ft 168 kts 163°
2026-04-28 19:51 54.59690 -5.82332 2244 ft 172 kts 161°
2026-04-28 19:51 54.58549 -5.81771 2626 ft 173 kts 159°
2026-04-28 19:52 54.57404 -5.81107 3022 ft 174 kts 156°
2026-04-28 19:52 54.56280 -5.80327 3405 ft 175 kts 152°
2026-04-28 19:52 54.55167 -5.79455 3809 ft 176 kts 150°
2026-04-28 19:52 54.54056 -5.78547 4201 ft 177 kts 149°
2026-04-28 19:53 54.52946 -5.77636 4593 ft 177 kts 150°
2026-04-28 19:53 54.51828 -5.76732 4967 ft 179 kts 150°
2026-04-28 19:53 54.50705 -5.75822 5372 ft 178 kts 150°
2026-04-28 19:53 54.49590 -5.74929 5701 ft 180 kts 150°
2026-04-28 19:54 54.48453 -5.74009 6068 ft 181 kts 150°
2026-04-28 19:54 54.47301 -5.73086 6426 ft 183 kts 150°
2026-04-28 19:54 54.46146 -5.72160 6787 ft 183 kts 150°
2026-04-28 19:54 54.44984 -5.71226 7125 ft 185 kts 150°
2026-04-28 19:55 54.43815 -5.70289 7444 ft 186 kts 150°
2026-04-28 19:55 54.42640 -5.69349 7759 ft 188 kts 149°
2026-04-28 19:55 54.41454 -5.68396 8091 ft 188 kts 149°
2026-04-28 19:55 54.40262 -5.67435 8401 ft 188 kts 146°
2026-04-28 19:56 54.39366 -5.65931 8654 ft 179 kts 118°
2026-04-28 19:56 54.38654 -5.64145 8935 ft 183 kts 121°
2026-04-28 19:56 54.37876 -5.62410 9240 ft 184 kts 124°
2026-04-28 19:56 54.37043 -5.60722 9550 ft 186 kts 126°
2026-04-28 19:57 54.36173 -5.59063 9846 ft 188 kts 127°
2026-04-28 19:57 54.35301 -5.57417 10161 ft 189 kts 127°
2026-04-28 19:57 54.34412 -5.55740 10461 ft 191 kts 127°
2026-04-28 19:57 54.33515 -5.54060 10733 ft 191 kts 126°
2026-04-28 19:58 54.32614 -5.52370 11009 ft 192 kts 126°
2026-04-28 19:58 54.31711 -5.50683 11283 ft 193 kts 126°
2026-04-28 19:58 54.30805 -5.48986 11542 ft 193 kts 126°
2026-04-28 19:58 54.29896 -5.47285 11804 ft 194 kts 126°
2026-04-28 19:59 54.28982 -5.45574 12064 ft 195 kts 126°
2026-04-28 19:59 54.28065 -5.43858 12319 ft 195 kts 126°
2026-04-28 19:59 54.27146 -5.42140 12578 ft 196 kts 125°
2026-04-28 19:59 54.26223 -5.40413 12839 ft 197 kts 125°
2026-04-28 20:00 54.25306 -5.38708 13096 ft 197 kts 126°
2026-04-28 20:00 54.24356 -5.36966 13355 ft 198 kts 125°
2026-04-28 20:00 54.23415 -5.35237 13607 ft 199 kts 125°
2026-04-28 20:00 54.22485 -5.33522 13859 ft 200 kts 125°
2026-04-28 20:01 54.21541 -5.31776 14091 ft 200 kts 125°
2026-04-28 20:01 54.20593 -5.30012 14319 ft 202 kts 124°
2026-04-28 20:01 54.19641 -5.28240 14528 ft 202 kts 124°
2026-04-28 20:01 54.18689 -5.26466 14737 ft 203 kts 124°
2026-04-28 20:02 54.17728 -5.24681 14948 ft 204 kts 124°
2026-04-28 20:02 54.16768 -5.22899 15140 ft 204 kts 124°
2026-04-28 20:02 54.15802 -5.21109 15318 ft 207 kts 124°
2026-04-28 20:02 54.14813 -5.19269 15391 ft 214 kts 124°
2026-04-28 20:03 54.13802 -5.17355 15428 ft 221 kts 124°
2026-04-28 20:03 54.12748 -5.15388 15445 ft 228 kts 125°
2026-04-28 20:03 54.11658 -5.13366 15453 ft 234 kts 125°
2026-04-28 20:03 54.10541 -5.11299 15453 ft 240 kts 126°
2026-04-28 20:04 54.09401 -5.09193 15452 ft 244 kts 126°
2026-04-28 20:04 54.08241 -5.07054 15456 ft 247 kts 126°
2026-04-28 20:04 54.07085 -5.04920 15450 ft 250 kts 126°
2026-04-28 20:04 54.05900 -5.02737 15453 ft 252 kts 126°
2026-04-28 20:05 54.04701 -5.00541 15450 ft 253 kts 126°
2026-04-28 20:05 54.03500 -4.98339 15445 ft 255 kts 126°
2026-04-28 20:05 54.02291 -4.96121 15449 ft 256 kts 126°
2026-04-28 20:05 54.01080 -4.93901 15450 ft 256 kts 126°
2026-04-28 20:06 53.99865 -4.91674 15446 ft 257 kts 126°
2026-04-28 20:06 53.98646 -4.89446 15443 ft 258 kts 126°
2026-04-28 20:06 53.97429 -4.87210 15445 ft 258 kts 125°
2026-04-28 20:06 53.96296 -4.84867 15450 ft 255 kts 121°
2026-04-28 20:07 53.95253 -4.82434 15446 ft 254 kts 119°
2026-04-28 20:07 53.94576 -4.80812 15439 ft 254 kts 119°
2026-04-28 20:07 53.93219 -4.77568 15446 ft 255 kts 119°
2026-04-28 20:07 53.92182 -4.75122 15446 ft 255 kts 120°
2026-04-28 20:08 53.91132 -4.72694 15445 ft 255 kts 120°
2026-04-28 20:08 53.90075 -4.70266 15469 ft 256 kts 120°
2026-04-28 20:08 53.89019 -4.67844 15462 ft 256 kts 119°
2026-04-28 20:08 53.87960 -4.65412 15455 ft 256 kts 120°
2026-04-28 20:09 53.86904 -4.62990 15453 ft 255 kts 120°
2026-04-28 20:09 53.85847 -4.60571 15449 ft 255 kts 119°
2026-04-28 20:09 53.84793 -4.58157 15445 ft 255 kts 120°
2026-04-28 20:09 53.83737 -4.55745 15444 ft 255 kts 120°
2026-04-28 20:10 53.82682 -4.53338 15445 ft 255 kts 120°
2026-04-28 20:10 53.81623 -4.50933 15443 ft 255 kts 120°
2026-04-28 20:10 53.80561 -4.48529 15442 ft 254 kts 120°
2026-04-28 20:10 53.79506 -4.46124 15442 ft 254 kts 120°
2026-04-28 20:11 53.78465 -4.43750 15439 ft 254 kts 120°
2026-04-28 20:11 53.77408 -4.41348 15438 ft 254 kts 120°
2026-04-28 20:11 53.76351 -4.38947 15436 ft 254 kts 120°
2026-04-28 20:11 53.75293 -4.36551 15433 ft 254 kts 120°
2026-04-28 20:12 53.74233 -4.34151 15433 ft 254 kts 120°
2026-04-28 20:12 53.73176 -4.31754 15432 ft 254 kts 120°
2026-04-28 20:12 53.72115 -4.29360 15433 ft 254 kts 120°
2026-04-28 20:12 53.71416 -4.27779 15433 ft 254 kts 120°
2026-04-28 20:13 53.69998 -4.24578 15433 ft 254 kts 120°
2026-04-28 20:13 53.68937 -4.22189 15433 ft 254 kts 120°
2026-04-28 20:13 53.67878 -4.19802 15433 ft 254 kts 120°
2026-04-28 20:13 53.66833 -4.17443 15442 ft 254 kts 120°
2026-04-28 20:14 53.65770 -4.15056 15448 ft 254 kts 120°
2026-04-28 20:14 53.64708 -4.12675 15438 ft 254 kts 120°
2026-04-28 20:14 53.63650 -4.10296 15429 ft 253 kts 120°
2026-04-28 20:14 53.62590 -4.07923 15425 ft 253 kts 120°
2026-04-28 20:15 53.61529 -4.05563 15430 ft 253 kts 120°
2026-04-28 20:15 53.60471 -4.03198 15432 ft 252 kts 120°
2026-04-28 20:15 53.59416 -4.00833 15422 ft 252 kts 120°
2026-04-28 20:15 53.58358 -3.98471 15434 ft 252 kts 120°
2026-04-28 20:16 53.57658 -3.96911 15425 ft 252 kts 120°
2026-04-28 20:16 53.56602 -3.94556 15430 ft 252 kts 120°
2026-04-28 20:16 53.55545 -3.92203 15433 ft 252 kts 120°
2026-04-28 20:16 53.54505 -3.89887 15426 ft 252 kts 120°
2026-04-28 20:17 53.53437 -3.87511 15251 ft 257 kts 120°
2026-04-28 20:17 53.52350 -3.85095 15035 ft 262 kts 120°
2026-04-28 20:17 53.51243 -3.82649 14730 ft 255 kts 121°
2026-04-28 20:17 53.50237 -3.80393 14386 ft 231 kts 112°
2026-04-28 20:18 53.49764 -3.77886 14034 ft 225 kts 103°
2026-04-28 20:18 53.49106 -3.75475 13663 ft 234 kts 111°
2026-04-28 20:18 53.48334 -3.72998 13186 ft 243 kts 111°
2026-04-28 20:18 53.47563 -3.70436 12706 ft 248 kts 110°
2026-04-28 20:19 53.46835 -3.67796 12233 ft 251 kts 109°
2026-04-28 20:19 53.46127 -3.65105 11789 ft 253 kts 109°
2026-04-28 20:19 53.45420 -3.62387 11341 ft 255 kts 109°
2026-04-28 20:19 53.44713 -3.59649 10912 ft 256 kts 109°
2026-04-28 20:20 53.43994 -3.56918 10472 ft 256 kts 109°
2026-04-28 20:20 53.43266 -3.54206 9968 ft 255 kts 109°
2026-04-28 20:20 53.42544 -3.51500 9435 ft 254 kts 110°
2026-04-28 20:20 53.41817 -3.48796 8913 ft 253 kts 110°
2026-04-28 20:21 53.41095 -3.46108 8392 ft 252 kts 110°
2026-04-28 20:21 53.40374 -3.43432 7919 ft 251 kts 110°
2026-04-28 20:21 53.39664 -3.40810 7451 ft 249 kts 111°
2026-04-28 20:21 53.38950 -3.38166 6981 ft 248 kts 111°
2026-04-28 20:22 53.38241 -3.35542 6502 ft 247 kts 111°
2026-04-28 20:22 53.37532 -3.32923 6005 ft 246 kts 112°
2026-04-28 20:22 53.36840 -3.30385 5591 ft 224 kts 112°
2026-04-28 20:22 53.36225 -3.28146 5194 ft 200 kts 112°
2026-04-28 20:23 53.35672 -3.26145 4777 ft 185 kts 112°
2026-04-28 20:23 53.35140 -3.24255 4401 ft 174 kts 112°
2026-04-28 20:23 53.34631 -3.22466 4115 ft 166 kts 112°
2026-04-28 20:23 53.34136 -3.20739 3957 ft 163 kts 112°
2026-04-28 20:24 53.33648 -3.19029 3859 ft 164 kts 112°
2026-04-28 20:24 53.33149 -3.17303 3758 ft 166 kts 112°
2026-04-28 20:24 53.32644 -3.15555 3630 ft 168 kts 112°
2026-04-28 20:24 53.32365 -3.13684 3355 ft 158 kts 86°
2026-04-28 20:25 53.32553 -3.11967 3134 ft 146 kts 84°
2026-04-28 20:25 53.32438 -3.10309 2944 ft 142 kts 99°
2026-04-28 20:25 53.32351 -3.08689 2731 ft 140 kts 87°
2026-04-28 20:25 53.32359 -3.07046 2422 ft 143 kts 85°
2026-04-28 20:26 53.32380 -3.05417 2190 ft 137 kts 84°
2026-04-28 20:26 53.32459 -3.03866 2163 ft 132 kts 81°
2026-04-28 20:26 53.32575 -3.02301 2086 ft 143 kts 80°
2026-04-28 20:26 53.32702 -3.00683 1900 ft 126 kts 81°
2026-04-28 20:27 53.32741 -2.99282 1666 ft 119 kts 85°
2026-04-28 20:27 53.32759 -2.97910 1505 ft 115 kts 84°
2026-04-28 20:27 53.32795 -2.96512 1328 ft 123 kts 82°
2026-04-28 20:27 53.32883 -2.95104 1158 ft 117 kts 79°
2026-04-28 20:28 53.32970 -2.93799 959 ft 113 kts 87°
2026-04-28 20:28 53.32978 -2.92503 771 ft 115 kts 84°
2026-04-28 20:28 53.33052 -2.91247 686 ft 106 kts 77°
2026-04-28 20:28 53.33179 -2.90054 487 ft 103 kts 97°
2026-04-28 20:29 53.33184 -2.88868 370 ft 106 kts 82°
2026-04-28 20:29 53.33239 -2.87591 252 ft 109 kts 83°
2026-04-28 20:29 53.33299 -2.86394 77 ft 97 kts 85°
2026-04-28 20:29 53.33334 -2.85633 78 ft 54 kts 86°